TimeMDT,TemperatureF,Dew PointF,Humidity,Sea Level PressureIn,VisibilityMPH,Wind Direction,Wind SpeedMPH,Gust SpeedMPH,PrecipitationIn,Events,Conditions,WindDirDegrees,DateUTC
12:15 AM,60.8,23.0,23,30.42,10.0,SE,4.6,-,N/A,,Clear,130,2013-06-13 06:15:00
12:35 AM,59.0,23.0,25,30.41,10.0,ESE,5.8,-,N/A,,Clear,120,2013-06-13 06:35:00
12:55 AM,59.0,23.0,25,30.41,10.0,East,4.6,-,N/A,,Clear,100,2013-06-13 06:55:00
1:15 AM,59.0,23.0,25,30.41,10.0,Calm,Calm,-,N/A,,Clear,0,2013-06-13 07:15:00
1:35 AM,57.2,23.0,27,30.41,10.0,East,6.9,-,N/A,,Clear,100,2013-06-13 07:35:00
1:55 AM,59.0,23.0,25,30.41,10.0,ESE,6.9,-,N/A,,Clear,120,2013-06-13 07:55:00
2:15 AM,57.2,23.0,27,30.41,10.0,SE,6.9,-,N/A,,Mostly Cloudy,130,2013-06-13 08:15:00
2:35 AM,57.2,23.0,27,30.41,10.0,ESE,5.8,-,N/A,,Overcast,110,2013-06-13 08:35:00
2:55 AM,57.2,23.0,27,30.40,10.0,ESE,6.9,-,N/A,,Overcast,110,2013-06-13 08:55:00
3:15 AM,57.2,23.0,27,30.40,10.0,ESE,5.8,-,N/A,,Scattered Clouds,110,2013-06-13 09:15:00
3:35 AM,57.2,24.8,29,30.40,10.0,SE,5.8,-,N/A,,Clear,130,2013-06-13 09:35:00
3:55 AM,55.4,23.0,29,30.40,10.0,East,6.9,-,N/A,,Clear,100,2013-06-13 09:55:00
4:15 AM,55.4,24.8,31,30.39,10.0,ESE,6.9,-,N/A,,Clear,120,2013-06-13 10:15:00
4:35 AM,55.4,24.8,31,30.39,10.0,ESE,6.9,-,N/A,,Clear,120,2013-06-13 10:35:00
4:55 AM,55.4,24.8,31,30.39,10.0,SE,6.9,-,N/A,,Clear,130,2013-06-13 10:55:00
5:15 AM,55.4,24.8,31,30.39,10.0,ESE,8.1,-,N/A,,Clear,110,2013-06-13 11:15:00
5:35 AM,55.4,24.8,31,30.39,10.0,ESE,9.2,-,N/A,,Clear,120,2013-06-13 11:35:00
5:55 AM,55.4,24.8,31,30.39,10.0,ESE,9.2,-,N/A,,Clear,120,2013-06-13 11:55:00
6:15 AM,55.4,24.8,31,30.39,10.0,ESE,5.8,-,N/A,,Clear,120,2013-06-13 12:15:00
6:35 AM,55.4,24.8,31,30.40,10.0,SE,4.6,-,N/A,,Clear,140,2013-06-13 12:35:00
6:55 AM,57.2,24.8,29,30.41,10.0,SE,6.9,-,N/A,,Clear,130,2013-06-13 12:55:00
7:15 AM,57.2,26.6,31,30.41,10.0,Calm,Calm,-,N/A,,Clear,0,2013-06-13 13:15:00
7:35 AM,60.8,26.6,27,30.41,10.0,ESE,4.6,-,N/A,,Clear,110,2013-06-13 13:35:00
7:55 AM,60.8,32.0,34,30.41,10.0,Calm,Calm,-,N/A,,Clear,0,2013-06-13 13:55:00
8:15 AM,62.6,32.0,32,30.42,10.0,Calm,Calm,-,N/A,,Clear,0,2013-06-13 14:15:00
8:35 AM,64.4,32.0,30,30.42,10.0,Calm,Calm,-,N/A,,Clear,0,2013-06-13 14:35:00
8:55 AM,68.0,30.2,24,30.42,10.0,Calm,Calm,-,N/A,,Clear,0,2013-06-13 14:55:00
9:15 AM,71.6,21.2,15,30.42,10.0,SE,4.6,-,N/A,,Clear,130,2013-06-13 15:15:00
9:35 AM,71.6,23.0,16,30.42,10.0,SW,5.8,17.3,N/A,,Clear,230,2013-06-13 15:35:00
9:55 AM,71.6,21.2,15,30.41,10.0,SW,18.4,27.6,N/A,,Scattered Clouds,220,2013-06-13 15:55:00
10:15 AM,71.6,21.2,15,30.42,10.0,SW,11.5,26.5,N/A,,Scattered Clouds,220,2013-06-13 16:15:00
10:35 AM,71.6,21.2,15,30.41,10.0,SW,16.1,23.0,N/A,,Scattered Clouds,230,2013-06-13 16:35:00
10:55 AM,71.6,21.2,15,30.41,10.0,SSW,11.5,29.9,N/A,,Scattered Clouds,210,2013-06-13 16:55:00
11:15 AM,71.6,23.0,16,30.42,10.0,SSW,8.1,19.6,N/A,,Scattered Clouds,210,2013-06-13 17:15:00
11:35 AM,71.6,23.0,16,30.41,10.0,SW,11.5,20.7,N/A,,Scattered Clouds,230,2013-06-13 17:35:00
11:55 AM,71.6,21.2,15,30.41,10.0,WSW,15.0,29.9,N/A,,Scattered Clouds,240,2013-06-13 17:55:00
12:15 PM,71.6,21.2,15,30.40,10.0,SW,17.3,29.9,N/A,,Scattered Clouds,220,2013-06-13 18:15:00
12:35 PM,73.4,21.2,14,30.40,10.0,SW,16.1,28.8,N/A,,Scattered Clouds,230,2013-06-13 18:35:00
12:55 PM,71.6,21.2,15,30.39,10.0,SW,13.8,31.1,N/A,,Mostly Cloudy,230,2013-06-13 18:55:00
1:15 PM,73.4,21.2,14,30.38,10.0,South,9.2,27.6,N/A,,Scattered Clouds,190,2013-06-13 19:15:00
1:35 PM,73.4,21.2,14,30.38,10.0,SSW,12.7,32.2,N/A,,Mostly Cloudy,200,2013-06-13 19:35:00
7:15 PM,71.6,26.6,19,30.30,10.0,SSW,8.1,17.3,N/A,,Clear,200,2013-06-14 01:15:00
7:35 PM,69.8,26.6,20,30.30,10.0,SSW,5.8,-,N/A,,Clear,200,2013-06-14 01:35:00
7:55 PM,69.8,26.6,20,30.32,10.0,SSW,11.5,23.0,N/A,,Mostly Cloudy,200,2013-06-14 01:55:00
8:15 PM,64.4,30.2,28,30.31,10.0,West,6.9,-,N/A,,Mostly Cloudy,260,2013-06-14 02:15:00
8:35 PM,68.0,30.2,24,30.34,10.0,WSW,19.6,35.7,N/A,Thunderstorm,Mostly Cloudy,240,2013-06-14 02:35:00
8:55 PM,60.8,35.6,39,30.40,10.0,SSW,6.9,33.4,N/A,Rain-Thunderstorm,Light Thunderstorms and Rain,210,2013-06-14 02:55:00
9:15 PM,60.8,35.6,39,30.36,10.0,ESE,9.2,-,N/A,Thunderstorm,Thunderstorm,110,2013-06-14 03:15:00
9:35 PM,57.2,41.0,55,30.40,10.0,SSE,9.2,16.1,N/A,Rain,Rain,150,2013-06-14 03:35:00
9:55 PM,59.0,39.2,48,30.40,10.0,ESE,12.7,-,N/A,Thunderstorm,Overcast,110,2013-06-14 03:55:00
10:15 PM,59.0,39.2,48,30.41,10.0,East,6.9,18.4,N/A,,Mostly Cloudy,100,2013-06-14 04:15:00
10:35 PM,57.2,37.4,48,30.36,10.0,East,9.2,18.4,N/A,,Mostly Cloudy,80,2013-06-14 04:35:00
10:55 PM,59.0,35.6,42,30.35,10.0,East,5.8,-,N/A,,Scattered Clouds,90,2013-06-14 04:55:00
11:15 PM,59.0,33.8,39,30.34,10.0,Calm,Calm,-,N/A,,Clear,0,2013-06-14 05:15:00
11:35 PM,59.0,33.8,39,30.34,10.0,Calm,Calm,-,N/A,,Scattered Clouds,0,2013-06-14 05:35:00
11:55 PM,60.8,32.0,34,30.34,10.0,ESE,4.6,-,N/A,,Mostly Cloudy,110,2013-06-14 05:55:00